sat.trackr.live / text

‹ back to catalog

ONEWEB-0657

NORAD 55818 · 2023-029Y

PAYLOAD ACTIVE UNKNOWN

§ Identity

Operator
Country
UK
Launch date
2023-03-09
Launch site
AFETR
Launch vehicle
Mass (kg)
RCS (m²)

Purposes: comms

External: N2YO · Heavens-Above · Gunter

§ Orbital elements

Epoch: 2026-05-25T04:13:53.787072Z

Period
109.11 min
Inclination
87.9150°
Eccentricity
0.0002045
Mean motion
13.19726055 rev/d
Perigee alt
1,184.2 km
Apogee alt
1,187.3 km
Semi-major
7,563.9 km
B*
1.5990e-4
RAAN
309.5621°
Arg perigee
113.8105°
Mean anomaly
246.3243°
Rev number
15,587

§ Raw data

ONEWEB-06571 55818U 23029Y   26145.17631698  .00000077  00000+0  15990-3 0  99922 55818  87.9150 309.5621 0002045 113.8105 246.3243 13.19726055155874

JSON: /api/v1/satellites/55818 · /tle

For live sub-satellite position, see the globe view (requires WebGL).

§ Visibility from observer

Set your observer location to see the next 7 days of passes ≥ 10°. The values pass through the URL so the page stays shareable.

No JS? Fill the form by hand. The geolocation button needs JavaScript.